IRIDIUM 106 1 41917U 17003A 26161.53724768 .00000010 00000+0 -36595-5 0 9995 2 41917 86.3964 91.3361 0001925 82.2914 277.8501 14.34217659492250 IRIDIUM 103 1 41918U 17003B 26161.52456339 .00000021 00000+0 40516-6 0 9991 2 41918 86.3960 91.2411 0002322 79.6674 280.4783 14.34216983492270 IRIDIUM 109 1 41919U 17003C 26161.53090600 .00000015 00000+0 -15315-5 0 9990 2 41919 86.3963 91.2980 0002307 83.6739 276.4720 14.34217737492246 IRIDIUM 102 1 41920U 17003D 26161.49919319 .00000050 00000+0 10918-4 0 9995 2 41920 86.3960 91.2347 0002234 85.9154 274.2297 14.34217552492326 IRIDIUM 105 1 41921U 17003E 26160.48103303 .00000178 00000+0 56392-4 0 9999 2 41921 86.3971 60.0919 0002533 86.3381 273.8105 14.34221457494039 IRIDIUM 104 1 41922U 17003F 26161.30257346 .00000174 00000+0 54926-4 0 9996 2 41922 86.3962 91.3594 0002545 83.0653 277.0832 14.34217609492287 IRIDIUM 114 1 41923U 17003G 26161.51822098 .00000012 00000+0 -28344-5 0 9990 2 41923 86.3961 91.2526 0002286 82.3725 277.7730 14.34217533492296 IRIDIUM 108 1 41924U 17003H 26161.47674214 .00000011 00000+0 -30034-5 0 9999 2 41924 86.3962 59.5661 0002146 86.7275 273.4167 14.34217298494149 IRIDIUM 112 1 41925U 17003J 26161.50553547 .00000047 00000+0 96514-5 0 9992 2 41925 86.3958 91.1001 0002373 84.9355 275.2111 14.34217277492319 IRIDIUM 111 1 41926U 17003K 26161.28354857 .00000175 00000+0 55418-4 0 9990 2 41926 86.3961 91.2634 0002293 82.3453 277.8003 14.34215204492269 IRIDIUM 113 1 42803U 17039A 26161.54258379 .00000050 00000+0 10769-4 0 9997 2 42803 86.3966 324.9571 0002313 89.7987 270.3474 14.34217577470239 IRIDIUM 123 1 42804U 17039B 26160.95614254 .00000121 00000+0 36238-4 0 9998 2 42804 86.3973 356.6608 0002091 84.1418 276.0016 14.34218751468914 IRIDIUM 120 1 42805U 17039C 26161.53622925 .00000321 00000+0 10750-3 0 9990 2 42805 86.3954 324.7429 0001993 93.8996 266.2428 14.34213944470223 IRIDIUM 115 1 42806U 17039D 26161.18548795 .00000312 00000+0 86673-4 0 9992 2 42806 86.4491 325.0175 0002005 86.9576 273.1854 14.43280934473254 IRIDIUM 118 1 42807U 17039E 26161.61577481 -.00000093 00000+0 -40189-4 0 9995 2 42807 86.3967 356.3830 0002101 87.1569 272.9867 14.34217191469003 IRIDIUM 117 1 42808U 17039F 26161.56503436 .00000041 00000+0 77351-5 0 9992 2 42808 86.3972 356.3621 0002141 85.8549 274.2892 14.34217649469028 IRIDIUM 126 1 42809U 17039G 26161.59040350 .00000059 00000+0 13839-4 0 9996 2 42809 86.3970 356.4022 0002200 84.8157 275.3289 14.34217619469000 IRIDIUM 124 1 42810U 17039H 26160.63398863 .00000290 00000+0 80293-4 0 9992 2 42810 86.4478 293.5176 0002206 91.9481 268.1973 14.43281680474029 IRIDIUM 128 1 42811U 17039J 26161.58114269 .00000023 00000+0 10662-5 0 9992 2 42811 86.3974 27.9126 0002002 86.0778 274.0646 14.34217537469030 IRIDIUM 121 1 42812U 17039K 26161.60943203 .00000165 00000+0 51702-4 0 9990 2 42812 86.3971 356.4221 0002123 90.1787 269.9653 14.34217123468888 IRIDIUM 133 1 42955U 17061A 26161.61285234 .00000089 00000+0 24800-4 0 9991 2 42955 86.3976 28.0168 0002128 85.5146 274.6293 14.34217019453831 IRIDIUM 100 1 42956U 17061B 26161.60651069 .00000080 00000+0 21515-4 0 9995 2 42956 86.3971 27.9384 0002122 85.5684 274.5754 14.34218551453839 IRIDIUM 122 1 42957U 17061C 26161.64456817 .00000041 00000+0 74298-5 0 9998 2 42957 86.3973 27.9227 0002201 84.5559 275.5888 14.34217848453844 IRIDIUM 129 1 42958U 17061D 26161.60017019 .00000084 00000+0 22809-4 0 9999 2 42958 86.3975 28.0081 0002423 87.7315 272.4159 14.34217964453855 IRIDIUM 119 1 42959U 17061E 26161.56845780 .00000036 00000+0 59010-5 0 9991 2 42959 86.3975 28.0172 0002271 84.2371 275.9084 14.34217666453867 IRIDIUM 107 1 42960U 17061F 26161.58748434 -.00000013 00000+0 -11781-4 0 9992 2 42960 86.3971 28.0302 0001934 80.1353 280.0061 14.34217429453870 IRIDIUM 132 1 42961U 17061G 26161.03567821 .00000066 00000+0 16419-4 0 9991 2 42961 86.3977 28.2405 0002249 86.0901 274.0552 14.34218289453791 IRIDIUM 136 1 42962U 17061H 26161.62554332 .00000198 00000+0 63729-4 0 9992 2 42962 86.3975 28.0006 0002236 84.1574 275.9877 14.34215237453897 IRIDIUM 139 1 42963U 17061J 26161.63188309 .00000081 00000+0 21714-4 0 9990 2 42963 86.3976 28.0599 0002066 86.0327 274.1105 14.34217737453908 IRIDIUM 125 1 42964U 17061K 26161.61919870 -.00000023 00000+0 -15288-4 0 9991 2 42964 86.3973 28.1258 0002294 73.9738 286.1711 14.34217379453912 IRIDIUM 135 1 43070U 17083A 26161.52355491 .00000015 00000+0 -18717-5 0 9998 2 43070 86.3958 324.8021 0002038 91.7403 268.4027 14.34217645443199 IRIDIUM 138 1 43071U 17083B 26161.54892637 .00000114 00000+0 33766-4 0 9998 2 43071 86.3977 324.4860 0002388 87.9965 272.1504 14.34217953443189 IRIDIUM 116 1 43072U 17083C 26161.51721251 .00000045 00000+0 90491-5 0 9991 2 43072 86.3959 324.7907 0001890 95.1571 264.9840 14.34217501443211 IRIDIUM 130 1 43073U 17083D 26161.48549844 -.00000108 00000+0 -45525-4 0 9993 2 43073 86.3964 325.0788 0001844 88.6959 271.4448 14.34217448443155 IRIDIUM 151 1 43074U 17083E 26161.52989791 .00000042 00000+0 78096-5 0 9993 2 43074 86.3962 324.8431 0002117 91.8560 268.2878 14.34217599443185 IRIDIUM 134 1 43075U 17083F 26161.49818477 -.00000008 00000+0 -97814-5 0 9995 2 43075 86.3958 324.8642 0001980 89.5465 270.5957 14.34217515443148 IRIDIUM 137 1 43076U 17083G 26161.51087005 .00000037 00000+0 60143-5 0 9999 2 43076 86.3963 324.9515 0002061 103.1197 257.0229 14.34217471443212 IRIDIUM 141 1 43077U 17083H 26161.50452775 .00000044 00000+0 85117-5 0 9995 2 43077 86.3960 324.7854 0002204 90.7616 269.3832 14.34217694443213 IRIDIUM 153 1 43078U 17083J 26161.59624348 .00000016 00000+0 -12144-5 0 9992 2 43078 86.3955 293.2272 0002211 90.7547 269.3902 14.34217578444336 IRIDIUM 131 1 43079U 17083K 26161.49184253 -.00000017 00000+0 -13244-4 0 9991 2 43079 86.3961 324.9762 0002088 91.8463 268.2972 14.34217220443148 IRIDIUM 144 1 43249U 18030A 26161.60258565 .00000005 00000+0 -53468-5 0 9993 2 43249 86.3951 293.1537 0001952 96.1551 263.9868 14.34217346429192 IRIDIUM 149 1 43250U 18030B 26161.60892867 .00000016 00000+0 -14986-5 0 9998 2 43250 86.3952 293.1180 0002235 93.2900 266.8552 14.34217656429219 IRIDIUM 157 1 43251U 18030C 26161.62795648 .00000018 00000+0 -78978-6 0 9994 2 43251 86.3954 293.1630 0002191 94.0372 266.1074 14.34217613429197 IRIDIUM 140 1 43252U 18030D 26161.64698373 .00000013 00000+0 -23627-5 0 9999 2 43252 86.3954 293.1679 0002005 92.9916 267.1509 14.34217556429253 IRIDIUM 145 1 43253U 18030E 26160.72730625 .00000121 00000+0 35989-4 0 9997 2 43253 86.3953 293.5245 0001903 97.5750 262.5662 14.34218236429052 IRIDIUM 146 1 43254U 18030F 26161.61527072 .00000023 00000+0 10629-5 0 9993 2 43254 86.3953 293.1656 0001973 96.0489 264.0931 14.34217608429198 IRIDIUM 148 1 43255U 18030G 26161.65332678 -.00000017 00000+0 -13061-4 0 9991 2 43255 86.3954 293.1927 0002088 97.2276 262.9157 14.34217178429230 IRIDIUM 142 1 43256U 18030H 26161.62161201 .00000065 00000+0 16219-4 0 9990 2 43256 86.3952 293.0950 0002052 96.4403 263.7027 14.34218245429194 IRIDIUM 150 1 43257U 18030J 26161.31082636 .00000033 00000+0 46262-5 0 9998 2 43257 86.3955 293.3412 0002115 92.6881 267.4557 14.34217809429174 IRIDIUM 143 1 43258U 18030K 26161.64064174 -.00000144 00000+0 -58531-4 0 9998 2 43258 86.3955 293.2959 0001944 94.7721 265.3697 14.34216775429156 IRIDIUM 161 1 43478U 18047C 26161.51323704 .00000280 00000+0 77319-4 0 9997 2 43478 86.4482 91.2614 0002554 87.1553 272.9940 14.43279257424173 IRIDIUM 152 1 43479U 18047D 26161.54359136 .00000005 00000+0 -52202-5 0 9990 2 43479 86.3958 91.1099 0002247 83.5994 276.5458 14.34217489421535 IRIDIUM 147 1 43480U 18047E 26161.54993358 .00000045 00000+0 90756-5 0 9991 2 43480 86.3959 91.1122 0002180 84.9301 275.2143 14.34217638421531 IRIDIUM 110 1 43481U 18047F 26161.55627711 .00000006 00000+0 -48984-5 0 9994 2 43481 86.3958 91.2011 0002484 85.0707 275.0772 14.34217479421526 IRIDIUM 162 1 43482U 18047G 26161.50694132 .00000278 00000+0 76631-4 0 9990 2 43482 86.4480 91.1552 0002336 83.1783 276.9683 14.43277893424166 IRIDIUM 160 1 43569U 18061A 26161.64164933 -.00000009 00000+0 -10262-4 0 9990 2 43569 86.3964 59.5339 0002164 86.4741 273.6703 14.34217396412434 IRIDIUM 166 1 43570U 18061B 26161.45771398 .00000213 00000+0 68974-4 0 9998 2 43570 86.3968 59.5619 0002138 85.0096 275.1344 14.34217706412433 IRIDIUM 158 1 43571U 18061C 26161.42600064 .00000080 00000+0 21392-4 0 9992 2 43571 86.3964 59.5848 0002247 82.3522 277.7929 14.34217722412399 IRIDIUM 165 1 43572U 18061D 26161.45136819 .00000114 00000+0 33645-4 0 9990 2 43572 86.3969 59.6204 0002089 86.0465 274.0969 14.34216565412425 IRIDIUM 155 1 43573U 18061E 26161.62262095 .00000023 00000+0 11884-5 0 9997 2 43573 86.3962 59.4181 0002158 82.6115 277.5326 14.34217777412412 IRIDIUM 154 1 43574U 18061F 26161.46405619 .00000035 00000+0 54384-5 0 9996 2 43574 86.3968 59.6179 0002035 87.5080 272.6349 14.34217715412443 IRIDIUM 163 1 43575U 18061G 26161.44501972 .00000087 00000+0 23995-4 0 9994 2 43575 86.3965 59.5414 0002319 83.8153 276.3307 14.34215845412411 IRIDIUM 156 1 43576U 18061H 26161.62896220 .00000210 00000+0 67922-4 0 9994 2 43576 86.3962 59.4715 0002121 79.7545 280.3889 14.34216531412437 IRIDIUM 164 1 43577U 18061J 26161.47039887 .00000070 00000+0 18021-4 0 9996 2 43577 86.3968 59.5782 0002107 88.6040 271.5397 14.34217455412456 IRIDIUM 159 1 43578U 18061K 26161.64799127 .00000192 00000+0 61609-4 0 9991 2 43578 86.3965 59.4410 0002317 84.4716 275.6744 14.34217214412441 IRIDIUM 180 1 43922U 19002A 26161.57771860 .00000019 00000+0 -17039-6 0 9995 2 43922 86.3967 356.3613 0002137 89.0454 271.0987 14.34217800388048 IRIDIUM 176 1 43923U 19002B 26161.56611281 .00000680 00000+0 10388-3 0 9995 2 43923 86.6093 356.3107 0002227 91.2159 268.9314 14.72258187398277 IRIDIUM 168 1 43924U 19002C 26161.57137715 .00000035 00000+0 53990-5 0 9994 2 43924 86.3974 356.4411 0002183 88.9662 271.1784 14.34217673388027 IRIDIUM 173 1 43925U 19002D 26161.62845949 .00000042 00000+0 78479-5 0 9993 2 43925 86.3971 356.3063 0002238 86.7028 273.4424 14.34217286388015 IRIDIUM 169 1 43926U 19002E 26160.39243543 .00000237 00000+0 71085-4 0 9990 2 43926 86.4233 28.4526 0002129 70.4730 289.6698 14.38610903389108 IRIDIUM 172 1 43927U 19002F 26161.55234599 .00000130 00000+0 39199-4 0 9993 2 43927 86.3970 356.3460 0002271 88.4906 271.6550 14.34219108388013 IRIDIUM 175 1 43928U 19002G 26161.62160673 .00000286 00000+0 78393-4 0 9994 2 43928 86.4507 293.2658 0001644 204.8569 155.2553 14.43609149398032 IRIDIUM 171 1 43929U 19002H 26161.60308728 -.00000114 00000+0 -47651-4 0 9993 2 43929 86.3973 356.6300 0001918 87.0406 273.1010 14.34218250388016 IRIDIUM 170 1 43930U 19002J 26161.57229565 .00000677 00000+0 10346-3 0 9994 2 43930 86.6091 356.3104 0002360 87.9468 272.2020 14.72258611398288 IRIDIUM 167 1 43931U 19002K 26161.59674639 .00000047 00000+0 96299-5 0 9997 2 43931 86.3972 356.3498 0001856 86.8048 273.3361 14.34217792388014 IRIDIUM 181 1 56726U 23068S 26161.45083760 .00000266 00000+0 73103-4 0 9995 2 56726 86.4503 59.6065 0002312 90.6941 269.4525 14.43311027161469 IRIDIUM 177 1 56727U 23068T 26161.49479605 .00000632 00000+0 79631-4 0 9996 2 56727 86.1961 331.9710 0002431 87.6641 272.4858 14.80217275165371 IRIDIUM 174 1 56728U 23068U 26161.55994220 .00000705 00000+0 10783-3 0 9992 2 56728 86.6099 356.4625 0002558 84.9770 275.1739 14.72254714165041 IRIDIUM 178 1 56729U 23068V 26161.61913068 .00000858 00000+0 10948-3 0 9993 2 56729 86.6543 28.1052 0002681 88.0752 272.0777 14.80222431165391 IRIDIUM 179 1 56730U 23068W 26161.41094579 .00000821 00000+0 10457-3 0 9995 2 56730 86.6784 37.1519 0002402 87.3076 272.8421 14.80238701165368